Simultaneous Nadir Overpasses (SNOs) Predictions

Prediction of SNOs between GOES-17 and METOP-C Satellite Orbit:

Table of predicted SNOs for the next 14.0 days since TLE Epoch: 11/1/2019
Index Date Time (GOES-17) GOES-17 Lat,Lon METOP-C Lat,Lon Distance(km) Time Diff (sec)
1 11/02/2019 18:43:37 -0.01,-137.21 0.27,-138.53 150.65 80
2 11/03/2019 18:25:38 -0.01,-137.20 -0.85,-133.54 418.13 80
3 11/05/2019 06:44:36 0.01,-137.20 -0.21,-138.12 105.74 80
4 11/06/2019 06:21:16 0.01,-137.19 0.92,-133.13 462.79 80
5 11/07/2019 18:40:09 -0.01,-137.18 0.09,-137.70 58.76 80
6 11/10/2019 06:41:08 0.01,-137.16 -0.02,-137.29 15.03 80
7 11/12/2019 18:39:20 -0.01,-137.13 -0.09,-136.87 30.07 80
8 11/14/2019 06:55:39 0.02,-137.10 -0.97,-141.45 495.74 80
9 11/15/2019 06:37:39 0.01,-137.08 0.16,-136.46 71.28 80




NCC Satellite Simultaneous Nadir Overpasses (SNOs) Prediction Service
